User: anonymous   Login
Location: Zagreb
(45.8000°N, 16.0000°E)
Time: 10:58:50
(UTC+01:00)
Language:

Courier 1B Rocket - Orbit

View from above orbital plane
View from above orbital plane
View from above satellite
View from above satellite

Ground track
Ground track

The orbit data is extracted from the following two-line orbital elements,

1 00059U 60013B   22018.70403312  .00000083  00000-0 -53830-5 0  9993
2 00059  28.2477 117.5552 0189164 116.3881 245.6212 13.52991599 24886
Epoch (UTC): 18 January 2022 16:53:48
Eccentricity: 0.0189164
inclination: 28.2477°
perigee height: 920 km
apogee height: 1202 km
right ascension of ascending node: 117.5552°
argument of perigee: 116.3881°
revolutions per day: 13.52991599
mean anomaly at epoch: 245.6212°
orbit number at epoch: 2488

The dashed part of the orbit path shows where the satellite is in the earth's shadow,  

DLR